| time (UTC) | temp F | wind direction | speed MPH | gust MPH | rain 1hr in | rain 24hr in | rain mn in | humidity % | barometer mb |
| 20260506095511 | 76 | 225 | 0.0 | 1.0 | 0.00 | 0.00 | 0.00 | 91 | 1009.0 |
| 20260506095011 | 76 | 157 | 0.0 | 5.0 | 0.00 | 0.00 | 0.00 | 91 | 1008.8 |
| 20260506094011 | 76 | 185 | 0.0 | 4.0 | 0.00 | 0.00 | 0.00 | 91 | 1008.7 |
| 20260506092511 | 77 | 213 | 2.0 | 7.0 | 0.00 | 0.00 | 0.00 | 90 | 1008.7 |
| 20260506092011 | 77 | 131 | 4.0 | 10.0 | 0.00 | 0.00 | 0.00 | 91 | 1008.7 |
| 20260506091010 | 77 | 194 | 0.0 | 7.0 | 0.00 | 0.00 | 0.00 | 91 | 1008.6 |
| 20260506090510 | 77 | 198 | 1.0 | 4.0 | 0.00 | 0.00 | 0.00 | 90 | 1008.7 |
| 20260506090011 | 77 | 142 | 3.0 | 6.0 | 0.00 | 0.00 | 0.00 | 90 | 1008.6 |
| 20260506085511 | 77 | 209 | 2.0 | 8.0 | 0.00 | 0.00 | 0.00 | 90 | 1008.7 |
| 20260506084510 | 77 | 166 | 0.0 | 5.0 | 0.00 | 0.00 | 0.00 | 90 | 1008.8 |
| 20260506084011 | 77 | 162 | 0.0 | 5.0 | 0.00 | 0.00 | 0.00 | 90 | 1008.8 |
| 20260506083510 | 77 | 160 | 1.0 | 6.0 | 0.00 | 0.00 | 0.00 | 90 | 1008.8 |
| 20260506083010 | 77 | 138 | 4.0 | 6.0 | 0.00 | 0.00 | 0.00 | 90 | 1008.8 |
| 20260506082510 | 77 | 170 | 2.0 | 4.0 | 0.00 | 0.00 | 0.00 | 90 | 1008.9 |
| 20260506082011 | 77 | 130 | 0.0 | 4.0 | 0.00 | 0.00 | 0.00 | 90 | 1008.9 |
| 20260506081010 | 77 | 224 | 1.0 | 5.0 | 0.00 | 0.00 | 0.00 | 90 | 1009.2 |
| 20260506073510 | 77 | 163 | 2.0 | 4.0 | 0.00 | 0.00 | 0.00 | 90 | 1009.5 |
| 20260506073011 | 77 | 196 | 1.0 | 5.0 | 0.00 | 0.00 | 0.00 | 89 | 1009.7 |
| 20260506072510 | 77 | 198 | 0.0 | 5.0 | 0.00 | 0.00 | 0.00 | 89 | 1009.7 |
| 20260506072010 | 77 | 168 | 1.0 | 4.0 | 0.00 | 0.00 | 0.00 | 89 | 1009.7 |
| 20260506071510 | 77 | 146 | 1.0 | 3.0 | 0.00 | 0.00 | 0.00 | 89 | 1009.8 |
| 20260506071010 | 77 | 156 | 1.0 | 8.0 | 0.00 | 0.00 | 0.00 | 89 | 1009.9 |
| 20260506070510 | 77 | 156 | 1.0 | 8.0 | 0.00 | 0.00 | 0.00 | 89 | 1009.9 |
| 20260506062011 | 77 | 152 | 1.0 | 3.0 | 0.00 | 0.00 | 0.00 | 89 | 1010.0 |
| 20260506061510 | 77 | 192 | 1.0 | 5.0 | 0.00 | 0.00 | 0.00 | 89 | 1010.0 |
| 20260506061010 | 77 | 221 | 2.0 | 6.0 | 0.00 | 0.00 | 0.00 | 89 | 1010.1 |
| 20260506060510 | 77 | 152 | 2.0 | 6.0 | 0.00 | 0.00 | 0.00 | 89 | 1010.1 |
| 20260506051011 | 77 | 127 | 1.0 | 4.0 | 0.00 | 0.00 | 0.00 | 89 | 1010.3 |
| 20260506045011 | 78 | 196 | 3.0 | 7.0 | 0.00 | 0.00 | 0.00 | 88 | 1009.9 |
| 20260506044511 | 78 | 167 | 1.0 | 6.0 | 0.00 | 0.00 | 0.00 | 88 | 1009.9 |
| 20260506044011 | 78 | 99 | 0.0 | 6.0 | 0.00 | 0.00 | 0.00 | 87 | 1010.1 |
| 20260506043511 | 78 | 145 | 3.0 | 6.0 | 0.00 | 0.00 | 0.00 | 87 | 1010.1 |
| 20260506042511 | 78 | 193 | 1.0 | 7.0 | 0.00 | 0.00 | 0.00 | 87 | 1010.2 |
| 20260506042011 | 78 | 179 | 1.0 | 7.0 | 0.00 | 0.00 | 0.00 | 87 | 1010.0 |
| 20260506041011 | 78 | 160 | 7.0 | 8.0 | 0.00 | 0.00 | 0.00 | 87 | 1009.8 |
| 20260506040511 | 78 | 169 | 2.0 | 8.0 | 0.00 | 0.00 | 0.00 | 87 | 1009.9 |
| 20260506040011 | 78 | 175 | 3.0 | 7.0 | 0.00 | 0.00 | 0.00 | 86 | 1009.8 |
| 20260506035511 | 78 | 195 | 2.0 | 8.0 | 0.00 | 0.00 | 0.00 | 86 | 1009.7 |
| 20260506035011 | 78 | 118 | 1.0 | 9.0 | 0.00 | 0.00 | 0.00 | 86 | 1009.6 |
| 20260506034511 | 78 | 147 | 1.0 | 9.0 | 0.00 | 0.00 | 0.00 | 86 | 1009.5 |
| 20260506034011 | 79 | 157 | 3.0 | 8.0 | 0.00 | 0.00 | 0.00 | 86 | 1009.6 |
| 20260506032511 | 79 | 169 | 6.0 | 11.0 | 0.00 | 0.00 | 0.00 | 85 | 1009.4 |
| 20260506032011 | 79 | 124 | 3.0 | 10.0 | 0.00 | 0.00 | 0.00 | 85 | 1009.3 |
| 20260506031011 | 79 | 163 | 3.0 | 7.0 | 0.00 | 0.00 | 0.00 | 85 | 1009.3 |
| 20260506030511 | 79 | 178 | 1.0 | 8.0 | 0.00 | 0.00 | 0.00 | 85 | 1009.3 |
| 20260506030011 | 79 | 237 | 1.0 | 8.0 | 0.00 | 0.00 | 0.00 | 84 | 1009.2 |
| 20260506025511 | 79 | 269 | 1.0 | 9.0 | 0.00 | 0.00 | 0.00 | 84 | 1009.1 |
| 20260506025011 | 79 | 163 | 3.0 | 9.0 | 0.00 | 0.00 | 0.00 | 84 | 1009.0 |
| 20260506024511 | 79 | 217 | 3.0 | 5.0 | 0.00 | 0.00 | 0.00 | 84 | 1008.9 |
| 20260506024010 | 79 | 180 | 1.0 | 8.0 | 0.00 | 0.00 | 0.00 | 84 | 1008.7 |
| 20260506023511 | 79 | 130 | 1.0 | 8.0 | 0.00 | 0.00 | 0.00 | 84 | 1008.6 |
| 20260506023011 | 79 | 196 | 0.0 | 8.0 | 0.00 | 0.00 | 0.00 | 84 | 1008.6 |
| 20260506022510 | 79 | 210 | 2.0 | 8.0 | 0.00 | 0.00 | 0.00 | 83 | 1008.5 |
| 20260506021511 | 79 | 159 | 2.0 | 8.0 | 0.00 | 0.00 | 0.00 | 83 | 1008.5 |
| 20260506021011 | 79 | 169 | 4.0 | 8.0 | 0.00 | 0.00 | 0.00 | 83 | 1008.4 |
| 20260506020011 | 80 | 194 | 2.0 | 8.0 | 0.00 | 0.00 | 0.00 | 82 | 1008.4 |
| 20260506015511 | 80 | 200 | 1.0 | 4.0 | 0.00 | 0.00 | 0.00 | 82 | 1008.4 |
| 20260506015011 | 80 | 214 | 1.0 | 4.0 | 0.00 | 0.00 | 0.00 | 81 | 1008.3 |
| 20260506014510 | 80 | 185 | 0.0 | 4.0 | 0.00 | 0.00 | 0.00 | 81 | 1008.2 |
| 20260506014011 | 80 | 186 | 0.0 | 5.0 | 0.00 | 0.00 | 0.00 | 81 | 1008.2 |
| 20260506013511 | 80 | 200 | 3.0 | 5.0 | 0.00 | 0.00 | 0.00 | 81 | 1008.1 |
| 20260506013010 | 80 | 161 | 0.0 | 12.0 | 0.00 | 0.00 | 0.00 | 80 | 1008.1 |
| 20260506012510 | 80 | 144 | 2.0 | 12.0 | 0.00 | 0.00 | 0.00 | 80 | 1008.1 |
| 20260506012010 | 80 | 138 | 1.0 | 6.0 | 0.00 | 0.00 | 0.00 | 80 | 1008.0 |
| 20260506011511 | 80 | 237 | 3.0 | 6.0 | 0.00 | 0.00 | 0.00 | 80 | 1007.8 |
| 20260506011011 | 80 | 152 | 3.0 | 7.0 | 0.00 | 0.00 | 0.00 | 80 | 1007.7 |
| 20260506010511 | 80 | 203 | 1.0 | 7.0 | 0.00 | 0.00 | 0.00 | 80 | 1007.6 |
| 20260506010010 | 80 | 202 | 2.0 | 7.0 | 0.00 | 0.00 | 0.00 | 80 | 1007.7 |
| 20260506005511 | 80 | 180 | 1.0 | 7.0 | 0.00 | 0.00 | 0.00 | 80 | 1007.7 |
| 20260506004510 | 81 | 144 | 2.0 | 4.0 | 0.00 | 0.00 | 0.00 | 79 | 1007.7 |
| 20260506004011 | 81 | 176 | 2.0 | 6.0 | 0.00 | 0.00 | 0.00 | 79 | 1007.5 |
| 20260506003510 | 81 | 156 | 2.0 | 14.0 | 0.00 | 0.00 | 0.00 | 79 | 1007.7 |
| 20260506003010 | 81 | 115 | 1.0 | 14.0 | 0.00 | 0.00 | 0.00 | 79 | 1007.6 |
| 20260506002510 | 81 | 151 | 5.0 | 14.0 | 0.00 | 0.00 | 0.00 | 79 | 1007.6 |
| 20260506002010 | 81 | 192 | 2.0 | 7.0 | 0.00 | 0.00 | 0.00 | 79 | 1007.4 |
| 20260506001510 | 81 | 145 | 3.0 | 5.0 | 0.00 | 0.00 | 0.00 | 79 | 1007.4 |
| 20260506001010 | 81 | 274 | 1.0 | 7.0 | 0.00 | 0.00 | 0.00 | 79 | 1007.3 |
| 20260506000510 | 81 | 173 | 4.0 | 10.0 | 0.00 | 0.00 | 0.00 | 79 | 1007.4 |
| 20260506000010 | 82 | 189 | 1.0 | 10.0 | 0.00 | 0.00 | 0.00 | 79 | 1007.4 |
| 20260505235510 | 82 | 133 | 3.0 | 8.0 | 0.00 | 0.00 | 0.00 | 79 | 1007.5 |
| 20260505235010 | 82 | 169 | 4.0 | 8.0 | 0.00 | 0.00 | 0.00 | 79 | 1007.3 |
| 20260505234510 | 82 | 179 | 2.0 | 9.0 | 0.00 | 0.00 | 0.00 | 79 | 1007.3 |
| 20260505234010 | 82 | 162 | 4.0 | 9.0 | 0.00 | 0.00 | 0.00 | 79 | 1007.3 |
| 20260505233510 | 82 | 125 | 2.0 | 8.0 | 0.00 | 0.00 | 0.00 | 79 | 1007.3 |
| 20260505232010 | 82 | 164 | 5.0 | 8.0 | 0.00 | 0.00 | 0.00 | 78 | 1007.3 |
| 20260505230510 | 83 | 202 | 4.0 | 6.0 | 0.00 | 0.00 | 0.00 | 76 | 1007.4 |
| 20260505230011 | 83 | 123 | 3.0 | 8.0 | 0.00 | 0.00 | 0.00 | 77 | 1007.4 |
| 20260505225511 | 83 | 197 | 0.0 | 8.0 | 0.00 | 0.00 | 0.00 | 76 | 1007.4 |
| 20260505224511 | 84 | 175 | 3.0 | 10.0 | 0.00 | 0.00 | 0.00 | 75 | 1007.2 |
| 20260505224011 | 84 | 184 | 2.0 | 10.0 | 0.00 | 0.00 | 0.00 | 75 | 1007.2 |
| 20260505223011 | 84 | 112 | 2.0 | 5.0 | 0.00 | 0.00 | 0.00 | 75 | 1007.4 |
| 20260505222511 | 84 | 171 | 1.0 | 5.0 | 0.00 | 0.00 | 0.00 | 75 | 1007.3 |
| 20260505222011 | 84 | 198 | 2.0 | 5.0 | 0.00 | 0.00 | 0.00 | 75 | 1007.4 |
| 20260505221511 | 84 | 146 | 2.0 | 5.0 | 0.00 | 0.00 | 0.00 | 75 | 1007.4 |
| 20260505221011 | 84 | 193 | 2.0 | 6.0 | 0.00 | 0.00 | 0.00 | 75 | 1007.4 |
| 20260505220511 | 84 | 152 | 2.0 | 6.0 | 0.00 | 0.00 | 0.00 | 75 | 1007.4 |
| 20260505220011 | 84 | 113 | 1.0 | 4.0 | 0.00 | 0.00 | 0.00 | 76 | 1007.5 |
| 20260505215511 | 84 | 156 | 1.0 | 8.0 | 0.00 | 0.00 | 0.00 | 76 | 1007.7 |
| 20260505214511 | 85 | 118 | 3.0 | 9.0 | 0.00 | 0.00 | 0.00 | 75 | 1007.7 |
| 20260505214011 | 85 | 136 | 2.0 | 5.0 | 0.00 | 0.00 | 0.00 | 75 | 1007.8 |
| 20260505213511 | 85 | 191 | 1.0 | 5.0 | 0.00 | 0.00 | 0.00 | 75 | 1007.8 |
| 20260505213011 | 85 | 237 | 1.0 | 7.0 | 0.00 | 0.00 | 0.00 | 75 | 1007.9 |
| 20260505212011 | 85 | 213 | 2.0 | 6.0 | 0.00 | 0.00 | 0.00 | 74 | 1008.0 |
| 20260505211511 | 85 | 188 | 0.0 | 3.0 | 0.00 | 0.00 | 0.00 | 74 | 1008.0 |
| 20260505211011 | 85 | 215 | 2.0 | 4.0 | 0.00 | 0.00 | 0.00 | 74 | 1008.1 |
| 20260505210511 | 85 | 329 | 0.0 | 4.0 | 0.00 | 0.00 | 0.00 | 73 | 1008.2 |
| 20260505210011 | 85 | 246 | 0.0 | 9.0 | 0.00 | 0.00 | 0.00 | 74 | 1008.2 |
| 20260505205011 | 85 | 179 | 2.0 | 6.0 | 0.00 | 0.00 | 0.00 | 74 | 1008.3 |
| 20260505204011 | 85 | 215 | 2.0 | 6.0 | 0.00 | 0.00 | 0.00 | 74 | 1008.4 |
| 20260505203511 | 85 | 117 | 2.0 | 7.0 | 0.00 | 0.00 | 0.00 | 74 | 1008.5 |
| 20260505203010 | 85 | 174 | 0.0 | 11.0 | 0.00 | 0.00 | 0.00 | 75 | 1008.5 |
| 20260505202511 | 85 | 214 | 2.0 | 11.0 | 0.00 | 0.00 | 0.00 | 75 | 1008.6 |
| 20260505202011 | 85 | 195 | 1.0 | 5.0 | 0.00 | 0.00 | 0.00 | 76 | 1008.8 |
| 20260505201511 | 84 | 167 | 0.0 | 5.0 | 0.00 | 0.00 | 0.00 | 76 | 1008.7 |
| 20260505200510 | 84 | 177 | 2.0 | 7.0 | 0.00 | 0.00 | 0.00 | 75 | 1009.0 |
| 20260505200010 | 85 | 186 | 3.0 | 8.0 | 0.00 | 0.00 | 0.00 | 76 | 1009.0 |
| 20260505195511 | 85 | 179 | 2.0 | 8.0 | 0.00 | 0.00 | 0.00 | 75 | 1009.0 |
| 20260505194511 | 84 | 215 | 0.0 | 5.0 | 0.00 | 0.00 | 0.00 | 77 | 1009.2 |
| 20260505194010 | 84 | 246 | 1.0 | 9.0 | 0.00 | 0.00 | 0.00 | 78 | 1009.2 |
| 20260505193510 | 84 | 212 | 1.0 | 9.0 | 0.00 | 0.00 | 0.00 | 77 | 1009.1 |
| 20260505193010 | 84 | 273 | 2.0 | 6.0 | 0.00 | 0.00 | 0.00 | 78 | 1009.2 |
| 20260505192510 | 83 | 94 | 1.0 | 8.0 | 0.00 | 0.00 | 0.00 | 79 | 1009.3 |
| 20260505192010 | 82 | 181 | 1.0 | 8.0 | 0.00 | 0.00 | 0.00 | 80 | 1009.4 |
| 20260505191510 | 82 | 246 | 0.0 | 6.0 | 0.00 | 0.00 | 0.00 | 79 | 1009.3 |
| 20260505191010 | 82 | 144 | 1.0 | 6.0 | 0.00 | 0.00 | 0.00 | 78 | 1009.4 |
| 20260505190511 | 82 | 331 | 1.0 | 6.0 | 0.00 | 0.00 | 0.00 | 79 | 1009.4 |
| 20260505190010 | 82 | 164 | 1.0 | 6.0 | 0.00 | 0.00 | 0.00 | 78 | 1009.5 |
| 20260505185511 | 82 | 234 | 1.0 | 6.0 | 0.00 | 0.00 | 0.00 | 78 | 1009.4 |
| 20260505185011 | 83 | 202 | 1.0 | 7.0 | 0.00 | 0.00 | 0.00 | 78 | 1009.4 |
| 20260505184510 | 83 | 84 | 2.0 | 7.0 | 0.00 | 0.00 | 0.00 | 77 | 1009.4 |
| 20260505184010 | 83 | 159 | 3.0 | 6.0 | 0.00 | 0.00 | 0.00 | 78 | 1009.5 |
| 20260505183511 | 83 | 215 | 3.0 | 6.0 | 0.00 | 0.00 | 0.00 | 78 | 1009.5 |
| 20260505183010 | 82 | 140 | 1.0 | 4.0 | 0.00 | 0.00 | 0.00 | 78 | 1009.6 |
| 20260505182010 | 82 | 170 | 0.0 | 6.0 | 0.00 | 0.00 | 0.00 | 79 | 1009.6 |
| 20260505181510 | 82 | 73 | 1.0 | 6.0 | 0.00 | 0.00 | 0.00 | 80 | 1009.6 |
| 20260505181010 | 82 | 190 | 1.0 | 10.0 | 0.00 | 0.00 | 0.00 | 80 | 1009.6 |
| 20260505180010 | 81 | 233 | 3.0 | 5.0 | 0.00 | 0.00 | 0.00 | 81 | 1009.6 |
| 20260505175510 | 81 | 217 | 0.0 | 5.0 | 0.00 | 0.00 | 0.00 | 81 | 1009.7 |
| 20260505175010 | 81 | 262 | 2.0 | 8.0 | 0.00 | 0.00 | 0.00 | 81 | 1009.8 |
| 20260505174510 | 81 | 233 | 2.0 | 8.0 | 0.00 | 0.00 | 0.00 | 81 | 1009.8 |
| 20260505174010 | 81 | 289 | 1.0 | 9.0 | 0.00 | 0.00 | 0.00 | 81 | 1009.9 |
| 20260505173510 | 81 | 179 | 2.0 | 9.0 | 0.00 | 0.00 | 0.00 | 81 | 1009.9 |
| 20260505173010 | 81 | 134 | 4.0 | 5.0 | 0.00 | 0.00 | 0.00 | 81 | 1009.9 |
| 20260505172511 | 81 | 214 | 1.0 | 4.0 | 0.00 | 0.00 | 0.00 | 82 | 1010.0 |
| 20260505172010 | 80 | 234 | 2.0 | 4.0 | 0.00 | 0.00 | 0.00 | 82 | 1010.0 |
| 20260505171510 | 80 | 110 | 2.0 | 5.0 | 0.00 | 0.00 | 0.00 | 82 | 1010.0 |
| 20260505170510 | 80 | 256 | 3.0 | 4.0 | 0.00 | 0.00 | 0.00 | 83 | 1010.1 |
| 20260505170010 | 80 | 36 | 0.0 | 5.0 | 0.00 | 0.00 | 0.00 | 83 | 1010.1 |
| 20260505165510 | 79 | 201 | 1.0 | 5.0 | 0.00 | 0.00 | 0.00 | 84 | 1010.2 |
| 20260505165010 | 79 | 142 | 1.0 | 4.0 | 0.00 | 0.00 | 0.00 | 84 | 1010.2 |
| 20260505164510 | 79 | 310 | 2.0 | 4.0 | 0.00 | 0.00 | 0.00 | 85 | 1010.3 |
| 20260505164010 | 79 | 158 | 0.0 | 4.0 | 0.00 | 0.00 | 0.00 | 85 | 1010.3 |
| 20260505163510 | 78 | 195 | 1.0 | 4.0 | 0.00 | 0.00 | 0.00 | 84 | 1010.7 |
| 20260505163011 | 79 | 148 | 2.0 | 4.0 | 0.00 | 0.00 | 0.00 | 84 | 1010.3 |
| 20260505162011 | 78 | 99 | 3.0 | 5.0 | 0.00 | 0.00 | 0.00 | 84 | 1010.2 |
| 20260505161511 | 78 | 174 | 3.0 | 5.0 | 0.00 | 0.00 | 0.00 | 84 | 1010.1 |
| 20260505160511 | 78 | 185 | 0.0 | 3.0 | 0.00 | 0.00 | 0.00 | 84 | 1010.2 |
| 20260505153011 | 78 | 135 | 3.0 | 11.0 | 0.00 | 0.00 | 0.00 | 84 | 1009.9 |
| 20260505152511 | 78 | 116 | 3.0 | 8.0 | 0.00 | 0.00 | 0.00 | 84 | 1009.9 |
| 20260505151511 | 78 | 227 | 1.0 | 5.0 | 0.00 | 0.00 | 0.00 | 84 | 1009.8 |
| 20260505151011 | 78 | 117 | 3.0 | 5.0 | 0.00 | 0.00 | 0.00 | 84 | 1009.9 |
| 20260505140511 | 76 | 160 | 3.0 | 9.0 | 0.00 | 0.00 | 0.00 | 87 | 1009.6 |
| 20260505125011 | 74 | 136 | 1.0 | 9.0 | 0.00 | 0.00 | 0.00 | 90 | 1009.0 |
| 20260505124510 | 74 | 159 | 1.0 | 5.0 | 0.00 | 0.00 | 0.00 | 90 | 1009.1 |
| 20260505124010 | 73 | 143 | 0.0 | 3.0 | 0.00 | 0.00 | 0.00 | 90 | 1009.4 |
| 20260505123510 | 73 | 244 | 0.0 | 3.0 | 0.00 | 0.00 | 0.00 | 90 | 1009.6 |
| 20260505123010 | 73 | 188 | 0.0 | 3.0 | 0.00 | 0.00 | 0.00 | 91 | 1009.4 |
| 20260505122010 | 73 | 164 | 0.0 | 0.0 | 0.00 | 0.00 | 0.00 | 90 | 1009.5 |
| 20260505121510 | 72 | 156 | 0.0 | 0.0 | 0.00 | 0.00 | 0.00 | 90 | 1009.3 |
| 20260505121010 | 72 | 128 | 0.0 | 2.0 | 0.00 | 0.00 | 0.00 | 90 | 1009.4 |
| 20260505120510 | 72 | 131 | 0.0 | 2.0 | 0.00 | 0.00 | 0.00 | 90 | 1009.0 |
| 20260505120010 | 72 | 179 | 1.0 | 3.0 | 0.00 | 0.00 | 0.00 | 91 | 1009.0 |
| 20260505115510 | 72 | 215 | 1.0 | 3.0 | 0.00 | 0.00 | 0.00 | 90 | 1008.9 |
| 20260505115010 | 72 | 213 | 1.0 | 3.0 | 0.00 | 0.00 | 0.00 | 90 | 1008.9 |
| 20260505114510 | 72 | 164 | 1.0 | 3.0 | 0.00 | 0.00 | 0.00 | 90 | 1009.0 |
| 20260505114010 | 72 | 121 | 0.0 | 3.0 | 0.00 | 0.00 | 0.00 | 90 | 1009.1 |
| 20260505113510 | 72 | 146 | 1.0 | 3.0 | 0.00 | 0.00 | 0.00 | 90 | 1009.3 |
| 20260505113010 | 72 | 203 | 0.0 | 3.0 | 0.00 | 0.00 | 0.00 | 90 | 1009.1 |
| 20260505112510 | 72 | 148 | 0.0 | 2.0 | 0.00 | 0.00 | 0.00 | 90 | 1009.2 |
| 20260505112010 | 72 | 350 | 0.0 | 4.0 | 0.00 | 0.00 | 0.00 | 90 | 1009.1 |
| 20260505111510 | 72 | 206 | 1.0 | 4.0 | 0.00 | 0.00 | 0.00 | 90 | 1009.1 |
| 20260505111010 | 72 | 174 | 1.0 | 5.0 | 0.00 | 0.00 | 0.00 | 90 | 1009.0 |
| 20260505102011 | 72 | 167 | 1.0 | 5.0 | 0.00 | 0.00 | 0.00 | 90 | 1009.0 |
| 20260505101511 | 71 | 159 | 0.0 | 2.0 | 0.00 | 0.00 | 0.00 | 90 | 1009.0 |
| 20260505101011 | 72 | 183 | 1.0 | 1.0 | 0.00 | 0.00 | 0.00 | 89 | 1009.1 |
| 20260505100511 | 72 | 122 | 0.0 | 2.0 | 0.00 | 0.00 | 0.00 | 89 | 1009.3 |
| 20260505100011 | 72 | 154 | 0.0 | 2.0 | 0.00 | 0.00 | 0.00 | 89 | 1009.3 |